NR0A-4 Weather Reports


time (UTC)temp
C
wind
direction
speed
KPH
gust
KPH
rain 1hr
cm
rain 24hr
cm
rain mn
cm
humidity
%
barometer
mb
20181022102611 4 340 0.0 0.0 0.00 0.00 0.00 83 1018.3
20181022102111 4 340 0.0 0.0 0.00 0.00 0.00 83 1018.1
20181022101610 5 340 0.0 0.0 0.00 0.00 0.00 83 1018.1
20181022101110 5 309 0.0 0.0 0.00 0.00 0.00 83 1018.1
20181022100610 5 326 0.0 1.6 0.00 0.00 0.00 83 1018.0
20181022100110 5 309 0.0 1.6 0.00 0.00 0.00 83 1017.8
20181022095614 5 316 1.6 1.6 0.00 0.00 0.00 82 1017.7
20181022095113 5 299 0.0 1.6 0.00 0.00 0.00 82 1017.7
20181022094613 5 325 1.6 4.8 0.00 0.00 0.00 82 1017.7
20181022094113 5 300 1.6 3.2 0.00 0.00 0.00 82 1017.6
20181022093613 5 303 1.6 4.8 0.00 0.00 0.00 82 1017.6
20181022093115 5 306 1.6 1.6 0.00 0.00 0.00 82 1017.5
20181022092614 5 262 1.6 1.6 0.00 0.00 0.00 81 1017.5
20181022092112 5 318 3.2 8.0 0.00 0.00 0.00 81 1017.5
20181022091612 5 239 0.0 1.6 0.00 0.00 0.00 80 1017.5
20181022091112 5 226 0.0 0.0 0.00 0.00 0.00 80 1017.5
20181022090612 5 295 0.0 1.6 0.00 0.00 0.00 80 1017.5
20181022090112 5 316 0.0 0.0 0.00 0.00 0.00 79 1017.4
20181022085612 6 311 0.0 0.0 0.00 0.00 0.00 79 1017.4
20181022085112 6 1 0.0 1.6 0.00 0.00 0.00 79 1017.2
20181022084612 6 303 0.0 1.6 0.00 0.00 0.00 78 1017.2
20181022084112 6 14 0.0 1.6 0.00 0.00 0.00 78 1017.2
20181022083612 6 179 0.0 0.0 0.00 0.00 0.00 78 1017.1
20181022083112 6 210 0.0 0.0 0.00 0.00 0.00 77 1017.1
20181022082612 6 33 0.0 1.6 0.00 0.00 0.00 77 1017.1
20181022082112 6 263 1.6 3.2 0.00 0.00 0.00 76 1017.1
20181022081611 6 25 0.0 1.6 0.00 0.00 0.00 76 1017.0
20181022081111 6 267 0.0 0.0 0.00 0.00 0.00 76 1017.0
20181022080611 7 297 0.0 1.6 0.00 0.00 0.00 76 1017.0
20181022080110 7 299 0.0 3.2 0.00 0.00 0.00 76 1017.0
20181022075610 7 11 0.0 1.6 0.00 0.00 0.00 76 1016.9
20181022075115 7 312 1.6 8.0 0.00 0.00 0.00 76 1016.9
20181022074615 7 339 1.6 8.0 0.00 0.00 0.00 76 1016.9
20181022074114 7 169 0.0 4.8 0.00 0.00 0.00 75 1016.9
20181022073613 7 265 0.0 0.0 0.00 0.00 0.00 75 1016.8
20181022073113 7 2 0.0 4.8 0.00 0.00 0.00 75 1016.8
20181022072613 7 352 0.0 1.6 0.00 0.00 0.00 76 1016.8
20181022072113 7 263 1.6 1.6 0.00 0.00 0.00 76 1016.8
20181022071613 7 323 1.6 3.2 0.00 0.00 0.00 76 1016.8
20181022071113 7 1 0.0 0.0 0.00 0.00 0.00 76 1016.9
20181022070613 7 1 0.0 0.0 0.00 0.00 0.00 76 1016.9
20181022070113 7 1 0.0 0.0 0.00 0.00 0.00 76 1016.9
20181022065613 7 272 0.0 3.2 0.00 0.00 0.00 76 1016.9
20181022065113 7 337 0.0 0.0 0.00 0.00 0.00 75 1016.9
20181022064613 7 317 1.6 3.2 0.00 0.00 0.00 75 1016.9
20181022064113 7 356 0.0 0.0 0.00 0.00 0.00 75 1016.9
20181022063612 7 356 0.0 0.0 0.00 0.00 0.00 74 1016.9
20181022063112 8 356 0.0 0.0 0.00 0.00 0.00 74 1016.9
20181022062614 8 356 0.0 0.0 0.00 0.00 0.00 74 1016.8
20181022062112 8 356 0.0 0.0 0.00 0.00 0.00 73 1016.8
20181022061612 8 283 0.0 3.2 0.00 0.00 0.00 72 1016.8
20181022061112 8 271 0.0 1.6 0.00 0.00 0.00 72 1016.8
20181022060612 8 353 0.0 3.2 0.00 0.00 0.00 71 1016.7
20181022060112 8 206 0.0 0.0 0.00 0.00 0.00 71 1016.7
20181022055611 9 268 0.0 1.6 0.00 0.00 0.00 70 1016.6
20181022055111 9 321 1.6 1.6 0.00 0.00 0.00 70 1016.6
20181022054611 9 0 0.0 0.0 0.00 0.00 0.00 70 1016.6
20181022054111 9 257 0.0 0.0 0.00 0.00 0.00 70 1016.5
20181022053611 9 305 0.0 0.0 0.00 0.00 0.00 70 1016.5
20181022053111 9 261 0.0 3.2 0.00 0.00 0.00 70 1016.4
20181022052611 9 320 3.2 9.7 0.00 0.00 0.00 71 1016.4
20181022052111 9 289 0.0 3.2 0.00 0.00 0.00 71 1016.4
20181022051611 9 316 3.2 8.0 0.00 0.00 0.00 71 1016.4
20181022051111 9 323 1.6 3.2 0.00 0.00 0.00 71 1016.3
20181022050611 9 333 1.6 8.0 0.00 0.00 0.00 71 1016.3
20181022050111 9 318 0.0 1.6 0.00 0.00 0.00 70 1016.3
20181022045611 9 293 1.6 1.6 0.00 0.00 0.00 70 1016.3
20181022045111 9 317 4.8 9.7 0.00 0.00 0.00 70 1016.3
20181022044611 10 288 1.6 3.2 0.00 0.00 0.00 70 1016.3
20181022044111 10 311 1.6 3.2 0.00 0.00 0.00 70 1016.4
20181022043611 10 289 0.0 1.6 0.00 0.00 0.00 70 1016.3
20181022043110 10 289 0.0 0.0 0.00 0.00 0.00 69 1016.4
20181022042611 10 289 0.0 0.0 0.00 0.00 0.00 69 1016.5
20181022042110 10 289 0.0 0.0 0.00 0.00 0.00 68 1016.5
20181022041610 10 289 0.0 0.0 0.00 0.00 0.00 68 1016.3
20181022041110 10 281 0.0 3.2 0.00 0.00 0.00 67 1016.3
20181022040610 10 288 1.6 3.2 0.00 0.00 0.00 67 1016.2
20181022040110 10 312 3.2 4.8 0.00 0.00 0.00 67 1016.2
20181022035610 11 332 1.6 4.8 0.00 0.00 0.00 66 1015.9
20181022035110 11 337 1.6 4.8 0.00 0.00 0.00 66 1016.3
20181022034612 11 305 0.0 1.6 0.00 0.00 0.00 66 1016.2
20181022034113 11 311 3.2 4.8 0.00 0.00 0.00 65 1016.2
20181022033613 11 317 1.6 3.2 0.00 0.00 0.00 65 1016.0
20181022033112 11 342 1.6 3.2 0.00 0.00 0.00 65 1016.1
20181022032612 11 315 0.0 3.2 0.00 0.00 0.00 65 1015.9
20181022032112 11 318 1.6 3.2 0.00 0.00 0.00 65 1015.9
20181022031612 11 289 1.6 3.2 0.00 0.00 0.00 65 1015.9
20181022031112 11 349 0.0 1.6 0.00 0.00 0.00 65 1016.0
20181022030612 11 349 0.0 0.0 0.00 0.00 0.00 65 1016.0
20181022030112 11 349 0.0 0.0 0.00 0.00 0.00 65 1016.2
20181022025612 11 349 0.0 0.0 0.00 0.00 0.00 64 1016.1
20181022025112 11 318 0.0 0.0 0.00 0.00 0.00 64 1015.9
20181022024612 11 318 1.6 1.6 0.00 0.00 0.00 64 1016.0
20181022024111 11 274 1.6 3.2 0.00 0.00 0.00 64 1015.8
20181022023611 11 306 1.6 3.2 0.00 0.00 0.00 63 1015.7
20181022023111 12 313 0.0 0.0 0.00 0.00 0.00 62 1015.8
20181022022611 12 340 0.0 0.0 0.00 0.00 0.00 62 1015.8
20181022022111 12 339 0.0 0.0 0.00 0.00 0.00 62 1016.0
20181022021610 12 347 0.0 1.6 0.00 0.00 0.00 62 1015.8
20181022021110 12 20 0.0 0.0 0.00 0.00 0.00 62 1016.0
20181022020610 12 4 0.0 0.0 0.00 0.00 0.00 61 1015.9
20181022020110 12 4 0.0 0.0 0.00 0.00 0.00 60 1015.9
20181022015610 12 4 0.0 0.0 0.00 0.00 0.00 60 1015.8
20181022015110 12 29 1.6 1.6 0.00 0.00 0.00 60 1015.8
20181022014610 13 32 1.6 8.0 0.00 0.00 0.00 59 1015.7
20181022014110 13 1 3.2 8.0 0.00 0.00 0.00 58 1015.6
20181022013610 13 287 0.0 0.0 0.00 0.00 0.00 58 1015.7
20181022013111 13 321 3.2 4.8 0.00 0.00 0.00 57 1015.7
20181022012610 13 211 1.6 3.2 0.00 0.00 0.00 56 1015.6
20181022012115 13 316 3.2 8.0 0.00 0.00 0.00 56 1015.6
20181022011615 14 43 1.6 9.7 0.00 0.00 0.00 56 1015.6
20181022011115 14 1 0.0 0.0 0.00 0.00 0.00 55 1015.6
20181022010615 14 7 1.6 9.7 0.00 0.00 0.00 54 1015.6
20181022010114 15 298 0.0 3.2 0.00 0.00 0.00 54 1015.6
20181022005614 15 335 1.6 3.2 0.00 0.00 0.00 53 1015.4
20181022005116 15 297 1.6 8.0 0.00 0.00 0.00 52 1015.3
20181022004617 15 321 1.6 4.8 0.00 0.00 0.00 52 1015.3
20181022004114 15 318 3.2 4.8 0.00 0.00 0.00 51 1015.3
20181022003617 16 324 1.6 4.8 0.00 0.00 0.00 51 1015.1
20181022003122 16 208 0.0 3.2 0.00 0.00 0.00 51 1015.1
20181022002626 16 297 1.6 3.2 0.00 0.00 0.00 51 1015.0
20181021235825 17 328 0.0 0.0 0.00 0.00 0.00 48 1014.7
20181021234611 17 351 0.0 3.2 0.00 0.00 0.00 46 1014.7
20181021234111 18 326 1.6 3.2 0.00 0.00 0.00 46 1014.6
20181021233110 18 351 1.6 1.6 0.00 0.00 0.00 44 1014.5
20181021232610 19 284 0.0 0.0 0.00 0.00 0.00 43 1014.5
20181021232110 20 284 0.0 0.0 0.00 0.00 0.00 42 1014.4
20181021231610 20 284 0.0 0.0 0.00 0.00 0.00 41 1014.5
20181021231110 21 284 0.0 0.0 0.00 0.00 0.00 40 1014.4
20181021230610 21 284 0.0 0.0 0.00 0.00 0.00 39 1014.4
20181021230114 21 284 0.0 0.0 0.00 0.00 0.00 38 1014.4
20181021225614 22 284 0.0 0.0 0.00 0.00 0.00 37 1014.4
20181021225114 22 284 0.0 0.0 0.00 0.00 0.00 37 1014.3
20181021224614 22 284 0.0 0.0 0.00 0.00 0.00 36 1014.3
20181021224114 22 284 0.0 0.0 0.00 0.00 0.00 36 1014.2
20181021223613 22 284 0.0 0.0 0.00 0.05 0.00 36 1014.3
20181021223113 22 217 0.0 0.0 0.00 0.05 0.00 35 1014.2
20181021222613 22 217 0.0 0.0 0.00 0.05 0.00 35 1014.2
20181021222112 22 230 0.0 1.6 0.00 0.05 0.00 34 1014.3
20181021221611 22 205 0.0 0.0 0.00 0.05 0.00 34 1014.2
20181021221111 22 306 0.0 0.0 0.00 0.05 0.00 35 1014.3
20181021220611 23 299 0.0 4.8 0.00 0.05 0.00 34 1014.2
20181021220111 23 210 0.0 0.0 0.00 0.05 0.00 35 1014.2
20181021215610 23 227 0.0 0.0 0.00 0.05 0.00 35 1014.3
20181021215110 23 142 1.6 4.8 0.00 0.05 0.00 34 1014.3
20181021214610 22 198 0.0 0.0 0.00 0.05 0.00 35 1014.3
20181021214110 22 306 1.6 4.8 0.00 0.05 0.00 34 1014.3
20181021213610 22 227 0.0 3.2 0.00 0.05 0.00 35 1014.3
20181021213110 22 227 3.2 11.3 0.00 0.05 0.00 34 1014.3
20181021212610 22 217 1.6 8.0 0.00 0.05 0.00 36 1014.2
20181021212110 22 228 4.8 8.0 0.00 0.05 0.00 34 1014.2
20181021211610 22 235 8.0 14.5 0.00 0.05 0.00 34 1014.2
20181021211110 22 244 3.2 3.2 0.00 0.05 0.00 35 1014.3
20181021210611 22 223 3.2 8.0 0.00 0.05 0.00 35 1014.2
20181021210110 22 233 8.0 11.3 0.00 0.05 0.00 34 1014.2
20181021205610 22 224 9.7 12.9 0.00 0.05 0.00 35 1014.2
20181021205110 22 225 9.7 16.1 0.00 0.05 0.00 35 1014.3
20181021204610 22 229 9.7 19.3 0.00 0.10 0.00 34 1014.2
20181021204110 22 280 3.2 4.8 0.00 0.10 0.00 35 1014.3
20181021203610 22 227 3.2 8.0 0.00 0.10 0.00 36 1014.3
20181021203110 21 216 8.0 14.5 0.00 0.10 0.00 36 1014.4
20181021202610 21 212 3.2 11.3 0.00 0.10 0.00 36 1014.4
20181021202114 21 233 3.2 9.7 0.00 0.10 0.00 36 1014.4
20181021201614 21 221 4.8 14.5 0.00 0.10 0.00 37 1014.5
20181021201114 21 221 4.8 12.9 0.00 0.10 0.00 37 1014.6
20181021200614 21 235 3.2 12.9 0.00 0.10 0.00 38 1014.6
20181021200114 20 223 11.3 19.3 0.00 0.10 0.00 36 1014.7
20181021195614 20 216 4.8 11.3 0.00 0.10 0.00 38 1014.7
20181021195114 20 223 9.7 20.9 0.00 0.10 0.00 37 1014.8
20181021194616 20 232 12.9 24.1 0.00 0.10 0.00 37 1014.8
20181021194114 20 235 8.0 14.5 0.00 0.10 0.00 37 1015.0
20181021193614 20 242 3.2 12.9 0.00 0.10 0.00 37 1014.9
20181021193114 20 216 4.8 11.3 0.00 0.10 0.00 38 1015.0
20181021192614 20 236 11.3 19.3 0.00 0.10 0.00 38 1015.1
20181021192114 20 243 8.0 19.3 0.00 0.10 0.00 38 1015.1
20181021191614 20 212 1.6 8.0 0.00 0.10 0.00 40 1015.2
20181021191113 19 237 9.7 19.3 0.00 0.10 0.00 39 1015.2
20181021190613 19 213 9.7 12.9 0.00 0.10 0.00 40 1015.2
20181021190113 19 221 8.0 19.3 0.00 0.10 0.00 41 1015.2
20181021185613 18 212 11.3 20.9 0.00 0.10 0.00 40 1015.2
20181021185113 18 232 4.8 16.1 0.00 0.10 0.00 42 1015.3
20181021184612 18 225 11.3 22.5 0.00 0.10 0.00 42 1015.4
20181021184112 18 222 8.0 12.9 0.00 0.10 0.00 42 1015.6
20181021183611 18 216 12.9 20.9 0.00 0.10 0.00 42 1015.7
20181021183111 18 218 3.2 12.9 0.00 0.10 0.00 43 1015.8
20181021182611 17 223 11.3 24.1 0.00 0.10 0.00 43 1016.0
20181021182111 17 228 8.0 11.3 0.00 0.10 0.00 44 1015.9
20181021181611 17 204 11.3 22.5 0.00 0.10 0.00 44 1016.2
20181021181111 17 216 4.8 12.9 0.00 0.10 0.00 45 1016.3
20181021180611 17 207 12.9 25.7 0.00 0.10 0.00 44 1016.4
20181021180114 17 220 9.7 14.5 0.00 0.10 0.00 44 1016.6
20181021175611 16 227 4.8 9.7 0.00 0.10 0.00 46 1016.7
20181021175111 16 160 4.8 9.7 0.00 0.10 0.00 46 1016.9
20181021174610 16 75 3.2 4.8 0.00 0.10 0.00 47 1017.0
20181021174110 15 214 8.0 14.5 0.00 0.10 0.00 48 1017.2
20181021173610 15 208 8.0 19.3 0.00 0.10 0.00 48 1017.0
20181021173114 15 229 9.7 24.1 0.00 0.10 0.00 48 1017.4
20181021172614 15 199 9.7 14.5 0.00 0.10 0.00 48 1017.5
20181021172114 14 204 11.3 16.1 0.00 0.10 0.00 49 1017.6
20181021171614 14 195 11.3 14.5 0.00 0.10 0.00 49 1017.5
20181021171114 14 202 4.8 14.5 0.00 0.10 0.00 50 1017.4
20181021170612 13 191 9.7 16.1 0.00 0.10 0.00 50 1017.4
20181021165855 13 208 8.0 22.5 0.00 0.10 0.00 51 1017.5
20181021164611 13 211 11.3 19.3 0.00 0.10 0.00 52 1017.5
20181021164111 13 214 11.3 20.9 0.00 0.10 0.00 52 1017.4
20181021163611 12 228 8.0 12.9 0.00 0.10 0.00 54 1017.5
20181021163111 12 187 9.7 20.9 0.00 0.10 0.00 53 1017.7
20181021162611 12 216 9.7 22.5 0.00 0.10 0.00 54 1017.6
20181021162110 11 201 9.7 19.3 0.00 0.10 0.00 54 1017.7
20181021161610 11 223 9.7 22.5 0.00 0.10 0.00 54 1017.7
20181021161110 11 200 12.9 29.0 0.00 0.10 0.00 54 1017.8
20181021160610 11 207 11.3 29.0 0.00 0.10 0.00 55 1018.0
20181021160110 10 208 11.3 16.1 0.00 0.10 0.00 56 1018.2
20181021155610 10 208 11.3 24.1 0.00 0.10 0.00 56 1018.3
20181021155110 10 205 9.7 20.9 0.00 0.10 0.00 57 1018.5
20181021154614 10 207 9.7 24.1 0.00 0.10 0.00 58 1018.6
20181021154114 9 220 9.7 16.1 0.00 0.10 0.00 58 1018.7
20181021153614 8 181 9.7 24.1 0.00 0.10 0.00 58 1018.8
20181021153114 8 201 9.7 12.9 0.00 0.10 0.00 59 1018.9
20181021152614 8 181 8.0 14.5 0.00 0.10 0.00 60 1019.0
20181021152113 7 205 9.7 14.5 0.00 0.10 0.00 60 1019.3
20181021151613 7 167 9.7 14.5 0.00 0.10 0.00 61 1019.4
20181021151113 7 192 11.3 20.9 0.00 0.10 0.00 61 1019.4
20181021150613 7 186 9.7 25.7 0.00 0.10 0.00 62 1019.5
20181021150113 6 177 12.9 16.1 0.00 0.10 0.00 62 1019.5
20181021145613 6 205 1.6 16.1 0.00 0.10 0.00 63 1019.6
20181021145113 6 226 0.0 0.0 0.00 0.10 0.00 64 1019.6
20181021144613 6 226 0.0 0.0 0.00 0.10 0.00 64 1019.7
20181021144113 5 226 0.0 0.0 0.00 0.10 0.00 65 1019.9
20181021143612 5 183 4.8 20.9 0.00 0.10 0.00 66 1020.0
20181021143112 5 156 11.3 16.1 0.00 0.10 0.00 66 1020.1
20181021142612 5 169 12.9 25.7 0.00 0.10 0.00 66 1020.2
20181021142113 5 181 11.3 19.3 0.00 0.10 0.00 67 1020.3
20181021141612 5 169 9.7 14.5 0.00 0.10 0.00 68 1020.5
20181021141112 4 149 11.3 19.3 0.00 0.10 0.00 68 1020.5
20181021140612 4 170 9.7 14.5 0.00 0.10 0.00 69 1020.6
20181021140112 3 150 11.3 16.1 0.00 0.10 0.00 69 1020.6
20181021135612 3 161 11.3 16.1 0.00 0.10 0.00 70 1020.7
20181021135112 3 186 9.7 24.1 0.00 0.10 0.00 70 1020.7
20181021134612 3 178 9.7 16.1 0.00 0.10 0.00 70 1020.8
20181021134112 3 177 11.3 12.9 0.00 0.10 0.00 70 1020.7
20181021133612 3 176 8.0 14.5 0.00 0.10 0.00 71 1020.8
20181021133112 3 157 9.7 19.3 0.00 0.10 0.00 71 1020.8
20181021132612 3 165 9.7 14.5 0.00 0.10 0.00 71 1021.0
20181021132112 2 161 8.0 8.0 0.00 0.10 0.00 72 1021.0
20181021131612 2 133 8.0 20.9 0.00 0.10 0.00 72 1021.0
20181021131112 2 175 9.7 12.9 0.00 0.10 0.00 72 1021.1
20181021130612 2 176 9.7 19.3 0.00 0.10 0.00 72 1021.2
20181021130112 2 161 8.0 16.1 0.00 0.10 0.00 72 1021.2
20181021125612 2 158 9.7 16.1 0.00 0.10 0.00 72 1021.3
20181021125112 2 166 11.3 14.5 0.00 0.10 0.00 72 1021.3
20181021124612 2 184 9.7 19.3 0.00 0.10 0.00 73 1021.5
20181021124112 2 175 8.0 14.5 0.00 0.10 0.00 73 1021.4
20181021123612 2 195 9.7 16.1 0.00 0.10 0.00 73 1021.5
20181021123112 2 177 8.0 12.9 0.00 0.10 0.00 73 1021.6
20181021122612 2 186 9.7 12.9 0.00 0.10 0.00 73 1021.7
20181021122112 2 172 11.3 16.1 0.00 0.10 0.00 72 1021.8
20181021121611 2 154 8.0 16.1 0.00 0.10 0.00 72 1021.9
20181021121111 2 177 9.7 14.5 0.00 0.10 0.00 72 1022.0
20181021120611 2 164 11.3 16.1 0.00 0.10 0.00 72 1022.0
20181021120111 2 157 8.0 20.9 0.00 0.10 0.00 73 1022.1
20181021115611 2 159 9.7 14.5 0.00 0.10 0.00 73 1022.3
20181021115111 1 169 9.7 12.9 0.00 0.10 0.00 73 1022.3
20181021114610 1 175 4.8 9.7 0.00 0.10 0.00 73 1022.4
20181021114111 1 149 11.3 14.5 0.00 0.10 0.00 74 1022.5
20181021113610 1 148 8.0 14.5 0.00 0.10 0.00 74 1022.6
20181021113110 1 174 9.7 16.1 0.00 0.10 0.00 74 1022.6
20181021112610 1 158 9.7 19.3 0.00 0.10 0.00 74 1022.6
20181021112110 1 151 9.7 19.3 0.00 0.10 0.00 75 1022.8
20181021111610 1 158 9.7 19.3 0.00 0.10 0.00 75 1022.8
20181021111110 1 136 11.3 14.5 0.00 0.10 0.00 74 1022.8
20181021110614 1 147 11.3 16.1 0.00 0.10 0.00 75 1022.8
20181021110114 1 156 11.3 16.1 0.00 0.10 0.00 75 1023.0
20181021105615 1 148 9.7 14.5 0.00 0.10 0.00 75 1023.1
20181021105114 1 151 9.7 19.3 0.00 0.10 0.00 75 1023.1
20181021104613 1 149 11.3 14.5 0.00 0.10 0.00 75 1023.2
20181021104112 1 151 11.3 19.3 0.00 0.10 0.00 76 1023.2
20181021103612 1 162 8.0 14.5 0.00 0.10 0.00 76 1023.3
20181021103112 1 166 9.7 12.9 0.00 0.10 0.00 76 1023.3